Walhalla, ND

3:26 PM CST on December 07, 2016 (GMT -0600)
Walhalla

Weather History for K96D - March, 2014

Change the Weather History Date:

Thursday, March 6, 2014

  Actual Average (KGAF) Record (KGAF)
Temperature  
Mean Temperature 20 °F -  
Max Temperature 24 °F 31 °F 57 °F (2016)
Min Temperature 15 °F 10 °F -25 °F (1955)
Degree Days  
Heating Degree Days 46    
Moisture  
Dew Point 20 °F    
Average Humidity 99    
Maximum Humidity 100    
Minimum Humidity 93    
Precipitation  
Precipitation 1.56 in - - ()
Sea Level Pressure  
Sea Level Pressure 29.77 in    
Wind  
Wind Speed 11 mph (NE)    
Max Wind Speed 20 mph    
Max Gust Speed 26 mph    
Visibility 6 miles    
Events Snow    
Averages and records for this station are not official NWS values.
T = Trace of Precipitation, MM = Missing Value Source: NWS Daily Summary

Daily Weather History Graph

Daily Weather History Graph

Search for Another Location

Airport or City:

Trip Planner

Search our weather history database for the weather conditions in past years. The results will help you decide how hot, cold, wet, or windy it might be!

Date:

Astronomy

Mar. 06, 2014 Rise Set
Actual Time 7:03 AM CST 6:23 PM CST
Civil Twilight 6:31 AM CST 6:54 PM CST
Nautical Twilight 5:55 AM CST 7:31 PM CST
Astronomical Twilight 5:18 AM CST 8:08 PM CST
Moon 9:43 AM CST (3/6) No Moon Set
Length of Visible Light 12h 22m
Length of Day
11h 19m
Waxing Crescent, 32% of the Moon is Illuminated
Mar 6
Waxing Crescent
Mar 8
First Quarter
Mar 16
Full
Mar 23
Last Quarter
Mar 30
New

Hourly Weather History & Observations

Time (CST) Temp. Windchill Dew Point Humidity Pressure Visibility Wind Dir Wind Speed Gust Speed Precip Events Conditions
12:15 AM 23.0 °F 11.1 °F 21.2 °F 93% 29.94 in 10.0 mi South 12.7 mph - N/A   Overcast
12:35 AM 23.0 °F 11.7 °F 21.2 °F 93% 29.92 in - South 11.5 mph - N/A   Unknown
12:55 AM 23.0 °F 11.7 °F 21.2 °F 93% 29.91 in - South 11.5 mph 18.4 mph N/A   Overcast
1:15 AM 23.0 °F 11.1 °F 21.2 °F 93% 29.90 in - South 12.7 mph 18.4 mph N/A   Unknown
1:35 AM 23.0 °F 11.7 °F 21.2 °F 93% 29.89 in - South 11.5 mph 17.3 mph N/A   Unknown
1:55 AM 23.0 °F 10.1 °F 21.2 °F 93% 29.88 in - SSE 15.0 mph - N/A   Unknown
2:15 AM 21.2 °F 7.8 °F 21.2 °F 100% 29.86 in 10.0 mi SSE 15.0 mph - N/A   Overcast
2:35 AM 19.4 °F 6.6 °F 19.4 °F 100% 29.85 in 10.0 mi SSE 12.7 mph 19.6 mph N/A   Overcast
2:55 AM 19.4 °F 6.0 °F 19.4 °F 100% 29.84 in 10.0 mi SSE 13.8 mph - N/A   Overcast
3:15 AM 19.4 °F 7.2 °F 19.4 °F 100% 29.85 in 10.0 mi South 11.5 mph - N/A   Overcast
3:35 AM 17.6 °F 3.2 °F 17.6 °F 100% 29.82 in 10.0 mi SSE 15.0 mph 20.7 mph N/A   Overcast
3:55 AM 17.6 °F 3.7 °F 17.6 °F 100% 29.81 in 10.0 mi SSE 13.8 mph - N/A   Overcast
4:15 AM 17.6 °F 3.7 °F 17.6 °F 100% 29.79 in 10.0 mi SSE 13.8 mph - N/A   Overcast
4:35 AM 17.6 °F 6.4 °F 17.6 °F 100% 29.79 in 10.0 mi SSE 9.2 mph 17.3 mph N/A   Overcast
4:55 AM 17.6 °F 3.2 °F 17.6 °F 100% 29.77 in 10.0 mi SSE 15.0 mph - N/A   Overcast
5:15 AM 17.6 °F 4.3 °F 17.6 °F 100% 29.77 in 5.0 mi SSE 12.7 mph - N/A Snow Light Snow
5:35 AM 17.6 °F 5.7 °F 17.6 °F 100% 29.74 in 4.0 mi SE 10.4 mph - N/A Snow Light Snow
5:55 AM 19.4 °F 6.6 °F 19.4 °F 100% 29.71 in 3.0 mi SE 12.7 mph - N/A Snow Light Snow
6:15 AM 19.4 °F 11.5 °F 19.4 °F 100% 29.75 in 4.0 mi NW 5.8 mph - N/A   Overcast
6:35 AM 19.4 °F 14.3 °F 19.4 °F 100% 29.75 in 3.0 mi West 3.5 mph - N/A Snow Light Snow
6:55 AM 19.4 °F 12.8 °F 19.4 °F 100% 29.76 in 5.0 mi SSE 4.6 mph - N/A   Mostly Cloudy
7:15 AM 19.4 °F 8.6 °F 19.4 °F 100% 29.75 in 6.0 mi SSE 9.2 mph - N/A   Mostly Cloudy
7:35 AM 19.4 °F 12.8 °F 19.4 °F 100% 29.76 in 9.0 mi SE 4.6 mph - N/A   Overcast
7:55 AM 19.4 °F 11.5 °F 19.4 °F 100% 29.75 in 10.0 mi ESE 5.8 mph - N/A   Overcast
8:15 AM 19.4 °F 10.4 °F 19.4 °F 100% 29.74 in 8.0 mi ESE 6.9 mph - N/A   Overcast
8:35 AM 19.4 °F 8.6 °F 19.4 °F 100% 29.74 in 5.0 mi SE 9.2 mph - N/A   Mostly Cloudy
8:55 AM 19.4 °F 9.5 °F 19.4 °F 100% 29.74 in 7.0 mi SE 8.1 mph - N/A   Overcast
9:15 AM 19.4 °F 9.5 °F 19.4 °F 100% 29.75 in 7.0 mi ESE 8.1 mph - N/A   Overcast
9:35 AM 19.4 °F 10.4 °F 19.4 °F 100% 29.73 in 5.0 mi ESE 6.9 mph - N/A   Overcast
9:55 AM 19.4 °F 11.5 °F 19.4 °F 100% 29.74 in 5.0 mi ESE 5.8 mph - N/A   Overcast
10:15 AM 19.4 °F 14.3 °F 19.4 °F 100% 29.75 in 5.0 mi ESE 3.5 mph - N/A   Overcast
10:35 AM 21.2 °F 14.9 °F 21.2 °F 100% 29.75 in 6.0 mi ESE 4.6 mph - N/A   Overcast
10:55 AM 23.0 °F 18.4 °F 23.0 °F 100% 29.74 in 7.0 mi ENE 3.5 mph - N/A   Overcast
11:15 AM 23.0 °F 18.4 °F 23.0 °F 100% 29.73 in 7.0 mi East 3.5 mph - N/A   Overcast
11:35 AM 23.0 °F - 23.0 °F 100% 29.74 in 8.0 mi Calm Calm - N/A   Overcast
11:55 AM 24.8 °F - 23.0 °F 93% 29.74 in 8.0 mi Calm Calm - N/A   Overcast
12:15 PM 24.8 °F 19.1 °F 23.0 °F 93% 29.74 in 9.0 mi NW 4.6 mph - N/A   Overcast
12:35 PM 23.0 °F 13.9 °F 23.0 °F 100% 29.73 in 7.0 mi NW 8.1 mph - N/A   Overcast
12:55 PM 23.0 °F 12.4 °F 23.0 °F 100% 29.74 in 5.0 mi NNW 10.4 mph - N/A   Mostly Cloudy
1:15 PM 23.0 °F 11.1 °F 23.0 °F 100% 29.74 in 5.0 mi NNW 12.7 mph - N/A   Mist
1:35 PM 23.0 °F 13.1 °F 23.0 °F 100% 29.73 in 6.0 mi NNW 9.2 mph - N/A   Clear
1:55 PM 23.0 °F 11.7 °F 23.0 °F 100% 29.73 in 5.0 mi NNW 11.5 mph - N/A   Partly Cloudy
2:15 PM 23.0 °F 11.7 °F 23.0 °F 100% 29.73 in 5.0 mi NNW 11.5 mph - N/A   Scattered Clouds
2:35 PM 23.0 °F 10.6 °F 23.0 °F 100% 29.73 in 5.0 mi North 13.8 mph - N/A   Scattered Clouds
2:55 PM 21.2 °F 9.5 °F 21.2 °F 100% 29.72 in 5.0 mi North 11.5 mph - N/A   Scattered Clouds
3:15 PM 23.0 °F 11.7 °F 23.0 °F 100% 29.73 in 5.0 mi North 11.5 mph - N/A   Scattered Clouds
3:35 PM 21.2 °F 9.5 °F 21.2 °F 100% 29.74 in 5.0 mi NNE 11.5 mph - N/A   Mostly Cloudy
3:55 PM 21.2 °F 10.1 °F 21.2 °F 100% 29.74 in 5.0 mi NNE 10.4 mph - N/A   Mostly Cloudy
4:15 PM 21.2 °F 9.5 °F 21.2 °F 100% 29.74 in 1.2 mi North 11.5 mph - 0.01 in Snow Light Snow
4:35 PM 21.2 °F 9.5 °F 21.2 °F 100% 29.74 in 0.5 mi North 11.5 mph - 0.16 in Snow Snow
4:55 PM 21.2 °F 9.5 °F 21.2 °F 100% 29.74 in 0.5 mi North 11.5 mph - 0.35 in Snow Snow
5:15 PM 21.2 °F 10.9 °F 21.2 °F 100% 29.73 in 0.5 mi NNE 9.2 mph - 0.10 in Snow Snow
5:35 PM 21.2 °F 10.1 °F 21.2 °F 100% 29.72 in 0.8 mi North 10.4 mph - 0.21 in Snow Light Snow
5:55 PM 21.2 °F 10.9 °F 21.2 °F 100% 29.72 in 1.2 mi North 9.2 mph - 0.25 in Snow Light Snow
6:15 PM 21.2 °F 10.9 °F 21.2 °F 100% 29.72 in 0.8 mi North 9.2 mph - 0.08 in Snow Light Snow
6:35 PM 21.2 °F 10.1 °F 21.2 °F 100% 29.73 in 0.8 mi North 10.4 mph - 0.16 in Snow Light Snow
6:55 PM 21.2 °F 10.9 °F 21.2 °F 100% 29.73 in 0.8 mi North 9.2 mph - 0.36 in Snow Light Snow
7:15 PM 21.2 °F 10.1 °F 21.2 °F 100% 29.73 in 1.2 mi NNW 10.4 mph - 0.10 in Snow Light Snow
7:35 PM 19.4 °F 6.6 °F 19.4 °F 100% 29.75 in 0.8 mi NNW 12.7 mph - 0.29 in Snow Light Snow
7:55 PM 19.4 °F 6.6 °F 19.4 °F 100% 29.75 in 1.0 mi NNW 12.7 mph - 0.49 in Snow Light Snow
8:15 PM 19.4 °F 5.5 °F 19.4 °F 100% 29.76 in 1.8 mi NNW 15.0 mph 19.6 mph 0.07 in Snow Light Snow
8:35 PM 19.4 °F 6.0 °F 19.4 °F 100% 29.76 in 7.0 mi NNW 13.8 mph - 0.10 in Snow Light Snow
8:55 PM 19.4 °F 5.5 °F 19.4 °F 100% 29.77 in 4.0 mi NNW 15.0 mph - 0.11 in Snow Light Snow
9:15 PM 19.4 °F 6.0 °F 19.4 °F 100% 29.77 in 7.0 mi NNW 13.8 mph - N/A Snow Light Snow
9:35 PM 19.4 °F 5.5 °F 19.4 °F 100% 29.78 in 10.0 mi North 15.0 mph - N/A Snow Light Snow
9:55 PM 19.4 °F 5.5 °F 19.4 °F 100% 29.78 in 10.0 mi NNW 15.0 mph - N/A   Overcast
10:15 PM 17.6 °F 3.7 °F 17.6 °F 100% 29.79 in 6.0 mi NNW 13.8 mph - N/A   Overcast
10:35 PM 17.6 °F 2.7 °F 17.6 °F 100% 29.80 in 8.0 mi NNW 16.1 mph 21.9 mph N/A   Overcast
10:55 PM 17.6 °F 2.2 °F 17.6 °F 100% 29.80 in 9.0 mi NNW 17.3 mph 20.7 mph N/A Snow Light Snow
11:15 PM 17.6 °F 1.7 °F 17.6 °F 100% 29.81 in 10.0 mi NNW 18.4 mph 25.3 mph N/A   Overcast
11:35 PM 15.8 °F -0.2 °F 15.8 °F 100% 29.81 in 10.0 mi NNW 17.3 mph - N/A Snow Light Snow
11:55 PM 15.8 °F -1.1 °F 15.8 °F 100% 29.82 in 10.0 mi NNW 19.6 mph 26.5 mph N/A   Overcast